GW7202 Weather Reports


time (UTC)temp
F
wind
direction
speed
knots
gust
knots
rain 1hr
in
rain 24hr
in
rain mn
in
humidity
%
barometer
mb
20260508114521 48 163 1.7 2.6 0.00 0.01 0.00 79 1012.9
20260508113018 46 150 0.0 2.6 0.00 0.01 0.00 81 1012.8
20260508111516 46 175 0.9 1.7 0.00 0.01 0.00 80 1012.5
20260508110013 46 158 0.9 1.7 0.00 0.01 0.00 80 1012.6
20260508104510 46 139 0.9 1.7 0.00 0.01 0.00 79 1012.7
20260508103027 47 207 0.9 2.6 0.00 0.01 0.00 77 1012.7
20260508101525 47 203 0.9 4.3 0.00 0.01 0.00 76 1012.8
20260508100024 48 138 2.6 6.1 0.00 0.01 0.00 75 1012.9
20260508094520 48 198 2.6 4.3 0.00 0.01 0.00 76 1012.9
20260508093015 48 195 2.6 5.2 0.00 0.01 0.00 75 1012.9
20260508091521 48 176 1.7 3.5 0.00 0.01 0.00 76 1012.9
20260508090011 48 180 1.7 5.2 0.00 0.01 0.00 75 1013.0
20260508084526 49 186 1.7 4.3 0.00 0.01 0.00 74 1013.0
20260508083028 49 155 2.6 4.3 0.00 0.01 0.00 73 1013.2
20260508081524 49 200 1.7 4.3 0.00 0.01 0.00 74 1013.3
20260508080026 48 167 1.7 4.3 0.00 0.01 0.00 75 1013.2
20260508074522 47 169 0.9 2.6 0.00 0.01 0.00 77 1013.4
20260508073021 46 154 0.0 1.7 0.00 0.01 0.00 80 1013.4
20260508071514 46 166 0.0 0.0 0.00 0.01 0.00 83 1013.5
20260508070029 47 166 0.0 0.0 0.00 0.01 0.00 81 1013.6
20260508064529 47 166 0.0 0.0 0.00 0.01 0.00 77 1013.7
20260508063006 49 164 0.0 0.9 0.00 0.01 0.00 74 1013.9
20260508061505 49 154 0.0 1.7 0.00 0.01 0.00 71 1014.0
20260508060006 50 155 0.9 2.6 0.00 0.01 0.00 70 1014.0
20260508054509 50 167 0.0 1.7 0.00 0.01 0.00 70 1014.1
20260508053019 50 141 0.9 2.6 0.00 0.01 0.00 70 1014.2
20260508051526 51 203 0.9 3.5 0.00 0.01 0.00 70 1014.4
20260508050013 51 210 0.9 3.5 0.00 0.01 0.00 70 1014.4
20260508044507 50 165 1.7 3.5 0.00 0.01 0.01 72 1014.5
20260508043012 48 218 0.0 1.7 0.00 0.01 0.01 79 1014.7
20260508041507 46 162 0.0 0.9 0.00 0.01 0.01 85 1014.7
20260508040005 45 189 0.0 0.0 0.00 0.01 0.01 89 1014.8
20260508034529 45 189 0.0 0.9 0.00 0.01 0.01 88 1014.7
20260508033016 45 189 0.0 0.0 0.00 0.01 0.01 88 1014.7
20260508031519 46 189 0.0 0.0 0.00 0.01 0.01 87 1014.7
20260508030013 47 189 0.0 0.0 0.00 0.01 0.01 86 1014.6
20260508024511 47 189 0.0 0.0 0.00 0.01 0.01 84 1014.6
20260508023009 48 189 0.0 0.0 0.00 0.01 0.01 84 1014.5
20260508021504 49 189 0.0 0.0 0.00 0.01 0.01 81 1014.2
20260508020034 50 189 0.0 0.0 0.00 0.01 0.01 79 1014.1
20260508014522 51 189 0.0 0.0 0.00 0.01 0.01 75 1014.0
20260508013017 54 189 0.0 0.0 0.00 0.01 0.01 69 1013.9
20260508011519 56 189 0.0 0.0 0.00 0.01 0.01 60 1013.8
20260508010017 59 189 0.0 0.9 0.00 0.01 0.01 54 1013.7
20260508004510 61 166 0.9 1.7 0.00 0.01 0.01 45 1013.6
20260508003008 62 205 0.0 2.6 0.00 0.01 0.01 43 1013.4
20260508001525 64 194 0.9 2.6 0.00 0.01 0.01 42 1013.4
20260508000027 66 256 0.0 4.3 0.00 0.01 0.01 38 1013.4
20260507234531 67 172 2.6 7.0 0.00 0.01 0.01 38 1013.4
20260507233022 67 220 1.7 7.0 0.00 0.01 0.01 36 1013.5
20260507231517 67 195 2.6 6.1 0.00 0.01 0.01 37 1013.6
20260507230026 67 150 3.5 7.8 0.00 0.01 0.01 39 1013.7
20260507224513 67 186 5.2 8.7 0.00 0.01 0.01 36 1013.8
20260507223025 67 303 1.7 8.7 0.00 0.01 0.01 38 1013.9
20260507221526 66 139 2.6 6.1 0.00 0.01 0.01 35 1014.0
20260507220024 67 197 6.1 14.8 0.00 0.01 0.01 35 1014.0
20260507214526 67 245 3.5 9.6 0.00 0.01 0.01 36 1013.9
20260507213022 66 162 5.2 13.9 0.00 0.01 0.01 40 1014.0
20260507211519 66 219 1.7 7.0 0.00 0.01 0.01 37 1014.1
20260507210018 66 262 2.6 7.8 0.00 0.01 0.01 35 1014.3
20260507204510 66 202 3.5 8.7 0.00 0.01 0.01 39 1014.5
20260507203013 66 300 3.5 8.7 0.00 0.01 0.01 36 1014.6
20260507201507 66 267 3.5 11.3 0.00 0.01 0.01 35 1015.0
20260507200023 66 296 3.5 8.7 0.00 0.01 0.01 36 1015.3
20260507194524 64 271 1.7 7.8 0.00 0.01 0.01 37 1015.5
20260507193020 65 209 7.0 10.4 0.00 0.01 0.01 36 1015.5
20260507191520 65 210 4.3 11.3 0.00 0.01 0.01 36 1015.7
20260507190016 64 143 3.5 8.7 0.00 0.01 0.01 37 1015.7
20260507184528 64 259 5.2 10.4 0.00 0.01 0.01 36 1016.0
20260507183010 64 172 4.3 10.4 0.00 0.01 0.01 37 1016.1
20260507181506 64 160 2.6 9.6 0.00 0.01 0.01 34 1016.0
20260507180026 63 181 7.0 11.3 0.00 0.01 0.01 35 1016.2
20260507174527 63 287 2.6 10.4 0.00 0.01 0.01 34 1016.5
20260507173039 62 348 4.3 7.8 0.00 0.01 0.01 36 1016.6
20260507171518 62 56 1.7 7.8 0.00 0.01 0.01 40 1016.8
20260507170019 62 233 4.3 10.4 0.00 0.01 0.01 35 1017.0
20260507164512 61 213 4.3 8.7 0.00 0.01 0.01 37 1017.3
20260507163010 61 333 1.7 8.7 0.00 0.01 0.01 40 1017.5
20260507161528 61 237 1.7 7.8 0.00 0.01 0.01 43 1017.8
20260507160028 60 238 3.5 9.6 0.00 0.01 0.01 39 1017.8
20260507154522 60 141 3.5 7.0 0.00 0.01 0.01 45 1017.8
20260507153024 59 167 2.6 5.2 0.00 0.01 0.01 44 1017.9
20260507151529 59 205 3.5 7.8 0.00 0.01 0.01 45 1018.1
20260507150018 58 167 4.3 7.8 0.00 0.01 0.01 52 1018.2
20260507144517 57 179 1.7 6.1 0.00 0.01 0.01 54 1018.2
20260507143025 56 214 4.3 7.0 0.00 0.01 0.01 52 1018.2
20260507141527 55 230 1.7 5.2 0.00 0.01 0.01 59 1018.1
20260507140027 54 217 2.6 7.0 0.00 0.01 0.01 58 1018.3
20260507134522 53 158 2.6 6.1 0.00 0.01 0.01 58 1018.2
20260507133022 52 180 2.6 6.1 0.00 0.01 0.01 58 1018.3
20260507131521 51 160 2.6 6.1 0.00 0.01 0.01 63 1018.3
20260507130016 49 200 2.6 4.3 0.01 0.01 0.01 66 1018.3
20260507124516 48 163 1.7 3.5 0.01 0.01 0.01 71 1018.2
20260507123005 46 181 1.7 2.6 0.01 0.01 0.01 78 1018.2
20260507121506 43 229 0.0 0.9 0.01 0.01 0.01 95 1018.0
20260507120005 37 231 0.0 0.0 0.00 0.00 0.00 95 1017.8